Tracking 22124 objects as of 24-Jan-2021
HD Live streaming from Space Station
objects crossing your sky now

ONEWEB-0127

Track ONEWEB-0127 now!
10-day predictions
ONEWEB-0127 is classified as:


NORAD ID: 47273
Int'l Code: 2020-100R
Perigee: 567.8 km
Apogee: 586.2 km
Inclination: 87.5 °
Period: 96.1 minutes
Semi major axis: 6948 km
RCS: Unknown
Launch date: December 18, 2020
Source: United Kingdom (UK)
Launch site: VOSTOCHNY COSMODROME (VOSTO)
aabbcc
Your satellite tracking list
Your tracking list is empty




NASA's NSSDC Master Catalog

Two Line Element Set (TLE):
1 47273U 20100R   21023.91667824 -.01369899  00000-0 -12294+0 0  9991
2 47273  87.4647  26.9330 0013246 135.6085 145.2879 14.99026260  1778
Source of the keplerian elements: AFSPC